MTSAT-2 (MSAS/PRN 137)

Last updated on Fri Jan 22 2021 06:27:35 GMT+0000 (Coordinated Universal Time)

1 28937U 06004A 21021.80229927 -.00000273 00000-0 00000-0 0 9997 2 28937 0.7302 93.9391 0002534 132.4511 334.9163 0.99079645 54689
UTC large
Height (km)
Speed (km/s)
/
Latitude / Longitude
Inclination (degrees)
Orbital Period (minutes)
Azimuth
Elevation
Range (km)
Doppler Factor

Next 0 passes for location: London (51.5072 / 0.1276)

Sorry there are no passes over London.